TimeCDT,TemperatureF,Dew PointF,Humidity,Sea Level PressureIn,VisibilityMPH,Wind Direction,Wind SpeedMPH,Gust SpeedMPH,PrecipitationIn,Events,Conditions,WindDirDegrees,DateUTC
12:15 AM,63.3,44.6,50,29.81,10.0,SSE,20.7,27.6,N/A,,Clear,160,2013-10-09 05:15:00
12:35 AM,62.6,44.6,52,29.81,10.0,SSE,17.3,25.3,N/A,,Clear,160,2013-10-09 05:35:00
12:55 AM,61.7,44.6,53,29.81,10.0,SSE,17.3,24.2,N/A,,Clear,150,2013-10-09 05:55:00
1:15 AM,61.7,44.4,53,29.81,10.0,SSE,17.3,24.2,N/A,,Clear,160,2013-10-09 06:15:00
1:35 AM,60.8,44.1,54,29.81,10.0,SSE,17.3,21.9,N/A,,Clear,150,2013-10-09 06:35:00
1:55 AM,60.3,43.9,55,29.81,10.0,SSE,15.0,21.9,N/A,,Clear,150,2013-10-09 06:55:00
2:15 AM,60.3,43.7,54,29.81,10.0,SSE,19.6,25.3,N/A,,Clear,150,2013-10-09 07:15:00
2:35 AM,59.4,43.7,56,29.82,10.0,SSE,16.1,21.9,N/A,,Clear,150,2013-10-09 07:35:00
2:55 AM,59.0,43.7,57,29.81,10.0,SSE,15.0,-,N/A,,Clear,150,2013-10-09 07:55:00
3:15 AM,58.1,43.7,59,29.81,10.0,SSE,15.0,-,N/A,,Clear,160,2013-10-09 08:15:00
3:35 AM,57.6,43.3,59,29.80,10.0,SSE,16.1,-,N/A,,Clear,160,2013-10-09 08:35:00
3:55 AM,57.4,43.2,59,29.80,10.0,SSE,16.1,21.9,N/A,,Clear,160,2013-10-09 08:55:00
4:15 AM,57.2,43.0,59,29.80,10.0,SSE,13.8,21.9,N/A,,Clear,160,2013-10-09 09:15:00
4:35 AM,56.3,43.0,61,29.81,10.0,SSE,10.4,-,N/A,,Clear,150,2013-10-09 09:35:00
4:55 AM,55.6,43.2,63,29.81,10.0,SE,8.1,-,N/A,,Clear,140,2013-10-09 09:55:00
5:15 AM,56.3,43.3,62,29.82,10.0,SE,9.2,-,N/A,,Clear,140,2013-10-09 10:15:00
5:35 AM,55.8,43.5,63,29.82,10.0,SE,12.7,17.3,N/A,,Clear,140,2013-10-09 10:35:00
5:55 AM,55.0,43.7,66,29.82,10.0,SE,9.2,-,N/A,,Clear,140,2013-10-09 10:55:00
6:15 AM,54.5,43.7,67,29.82,10.0,SE,9.2,-,N/A,,Clear,140,2013-10-09 11:15:00
6:35 AM,53.8,43.9,69,29.82,10.0,SSE,8.1,-,N/A,,Clear,150,2013-10-09 11:35:00
6:55 AM,52.7,43.7,71,29.82,10.0,SE,8.1,-,N/A,,Clear,130,2013-10-09 11:55:00
7:15 AM,52.2,43.7,73,29.83,10.0,SE,8.1,-,N/A,,Clear,130,2013-10-09 12:15:00
7:35 AM,50.0,43.3,78,29.83,10.0,ESE,6.9,-,N/A,,Clear,120,2013-10-09 12:35:00
7:55 AM,47.1,42.3,83,29.84,10.0,East,5.8,-,N/A,,Clear,90,2013-10-09 12:55:00
8:15 AM,46.6,42.8,87,29.84,10.0,East,5.8,-,N/A,,Clear,90,2013-10-09 13:15:00
8:35 AM,48.4,44.8,87,29.84,10.0,ESE,4.6,-,N/A,,Clear,110,2013-10-09 13:35:00
8:55 AM,53.2,45.9,76,29.85,10.0,ESE,6.9,-,N/A,,Clear,110,2013-10-09 13:55:00
9:15 AM,54.9,46.2,73,29.85,10.0,ESE,8.1,-,N/A,,Clear,120,2013-10-09 14:15:00
9:35 AM,56.5,46.6,69,29.85,10.0,SE,9.2,-,N/A,,Clear,140,2013-10-09 14:35:00
9:55 AM,59.2,46.8,63,29.87,10.0,SSE,12.7,16.1,N/A,,Clear,160,2013-10-09 14:55:00
10:15 AM,60.8,45.9,58,29.87,10.0,SSE,15.0,-,N/A,,Clear,150,2013-10-09 15:15:00
10:35 AM,62.2,46.0,55,29.87,10.0,SSE,15.0,-,N/A,,Clear,160,2013-10-09 15:35:00
10:55 AM,63.0,45.3,53,29.88,10.0,SSE,12.7,-,N/A,,Clear,160,2013-10-09 15:55:00
11:15 AM,64.0,45.0,50,29.88,10.0,SSE,10.4,-,N/A,,Clear,160,2013-10-09 16:15:00
11:35 AM,65.5,45.5,48,29.88,10.0,SSE,11.5,-,N/A,,Clear,160,2013-10-09 16:35:00
11:55 AM,66.2,45.0,46,29.88,10.0,SSE,12.7,17.3,N/A,,Clear,160,2013-10-09 16:55:00
12:15 PM,67.5,45.0,44,29.88,10.0,South,12.7,18.4,N/A,,Clear,170,2013-10-09 17:15:00
12:35 PM,68.9,45.1,42,29.87,10.0,SE,12.7,17.3,N/A,,Clear,140,2013-10-09 17:35:00
12:55 PM,69.8,45.1,41,29.87,10.0,South,13.8,19.6,N/A,,Clear,170,2013-10-09 17:55:00
1:15 PM,70.9,45.7,40,29.86,10.0,SE,10.4,19.6,N/A,,Clear,140,2013-10-09 18:15:00
1:35 PM,71.4,45.7,40,29.86,10.0,SE,11.5,-,N/A,,Clear,130,2013-10-09 18:35:00
1:55 PM,72.7,45.9,38,29.85,10.0,SE,12.7,18.4,N/A,,Clear,140,2013-10-09 18:55:00
2:15 PM,73.6,45.1,36,29.85,10.0,SSE,13.8,20.7,N/A,,Clear,150,2013-10-09 19:15:00
2:35 PM,74.8,45.5,35,29.84,10.0,SSE,15.0,21.9,N/A,,Clear,150,2013-10-09 19:35:00
2:55 PM,76.1,44.8,33,29.84,10.0,SSE,13.8,23.0,N/A,,Clear,150,2013-10-09 19:55:00
3:15 PM,76.5,44.8,32,29.83,10.0,SSE,17.3,21.9,N/A,,Clear,160,2013-10-09 20:15:00
3:55 PM,77.4,45.3,32,29.83,10.0,SSE,17.3,24.2,N/A,,Clear,160,2013-10-09 20:55:00
4:15 PM,77.9,45.5,32,29.83,10.0,SSE,20.7,24.2,N/A,,Clear,160,2013-10-09 21:15:00
4:35 PM,78.4,45.1,31,29.83,10.0,South,16.1,24.2,N/A,,Clear,170,2013-10-09 21:35:00
4:55 PM,78.3,45.7,32,29.83,10.0,SSE,16.1,21.9,N/A,,Clear,160,2013-10-09 21:55:00
5:15 PM,78.4,45.5,31,29.83,10.0,SSE,16.1,21.9,N/A,,Clear,160,2013-10-09 22:15:00
5:35 PM,78.4,45.1,31,29.83,10.0,SSE,16.1,24.2,N/A,,Clear,160,2013-10-09 22:35:00
5:55 PM,77.7,46.2,33,29.82,10.0,SSE,16.1,-,N/A,,Clear,160,2013-10-09 22:55:00
6:15 PM,77.0,45.3,32,29.82,10.0,SSE,12.7,-,N/A,,Clear,150,2013-10-09 23:15:00
6:55 PM,72.9,46.2,39,29.83,10.0,SSE,9.2,-,N/A,,Clear,150,2013-10-09 23:55:00
7:15 PM,70.0,46.6,43,29.84,10.0,SSE,8.1,-,N/A,,Clear,150,2013-10-10 00:15:00
7:35 PM,70.2,46.4,43,29.83,10.0,SE,8.1,-,N/A,,Clear,130,2013-10-10 00:35:00
7:55 PM,69.8,46.6,43,29.84,10.0,SE,9.2,-,N/A,,Clear,130,2013-10-10 00:55:00
8:15 PM,68.7,46.6,45,29.85,10.0,SE,8.1,-,N/A,,Clear,140,2013-10-10 01:15:00
8:35 PM,67.1,46.8,48,29.85,10.0,SE,6.9,-,N/A,,Clear,130,2013-10-10 01:35:00
8:55 PM,64.2,46.9,53,29.86,10.0,SE,5.8,-,N/A,,Clear,130,2013-10-10 01:55:00
9:15 PM,64.0,47.1,54,29.87,10.0,SE,4.6,-,N/A,,Clear,140,2013-10-10 02:15:00
9:35 PM,64.4,46.9,53,29.87,10.0,SSE,10.4,-,N/A,,Clear,150,2013-10-10 02:35:00
9:55 PM,66.2,46.4,49,29.88,10.0,SSE,10.4,-,N/A,,Clear,150,2013-10-10 02:55:00
10:15 PM,66.2,45.7,48,29.88,10.0,SE,9.2,-,N/A,,Clear,140,2013-10-10 03:15:00
10:35 PM,66.0,45.5,48,29.88,10.0,SE,10.4,-,N/A,,Clear,140,2013-10-10 03:35:00
10:55 PM,65.5,45.7,49,29.89,10.0,SSE,12.7,18.4,N/A,,Clear,150,2013-10-10 03:55:00
11:15 PM,65.5,46.0,49,29.89,10.0,SSE,13.8,-,N/A,,Clear,160,2013-10-10 04:15:00
11:55 PM,64.6,46.4,52,29.90,10.0,SSE,13.8,-,N/A,,Clear,150,2013-10-10 04:55:00